SL-12 DEB, 39800

Orbit data source: Space-Track

SL-12 DEB, 39800 is space debris in HEO originally from a launch on Thu, 25 Sep 2008 UTC launched from the Tyuratam Missile And Space Complex (TTMTR). Debris objects in space refer to the collection of defunct objects orbiting the Earth. Examples of debris include non-operational satellites, rocket bodies, and fragments generated from explosions, collisions, or faulty payload assembly.

Loading next visibility...
Identifier
39800, 2008-046M
Orbit
HEO
Country
Flag of CISCIS
Related business
Manufacturer
Unknown
Mission
Spacecraft
Bus & Motor
Unknown
Mass
Unknown
Launch date (UTC)
2008-09-25 (17 years ago)
Launch vehicle
Unknown
Launch site
Tyuratam Missile And Space Complex (TTMTR)
Object type
Payload
Rocket body
Debris
Shape & HBR
Unknown shape, 0.6 m
Radar Cross Section
Medium (>0.1 m² and <1 m²)

Expand to show TLE details & history
Last TLE update: 2 days ago

TLE from 2 days ago
0 SL-12 DEB
1 39800U 08046M   26061.17033375  .00000041  00000-0  30009-3 0  9992
2 39800  65.3038  39.0685 5661948 256.3129  37.7248  4.24156396181994
Epoch: 2026-03-02T04:05Z
TLE epoch observation values (Epoch: 2026-03-02T04:05:16.835Z)
Latitude
0.00009°
Longitude
177.75489°
Altitude
6,278.679 km
Speed
6.186 km/s
True Right ascension
02h 36m 10s
True Declination
0° 00' 00"
Sunlit
Object was in daylight at epoch
Visualization orbit readout
Latitude
Unknown
Longitude
Unknown
Altitude
Unknown
Speed
Unknown
Apparent Right ascension
Unknown
Apparent Declination
Unknown
Sunlit
N/A
Visualization observer readout
Local Sidereal Time
20:44:28
Azimuth
Unknown
Elevation
Unknown
Doppler factor
Unknown
Orbital elements
Apogee altitude
18,868.25 km
Perigee altitude
614.616 km
Semi-major axis
16,119.57 km
Eccentricity
0.56619
Inclination
65.3038°
RAAN
39.0685°
Arg. of periapsis
256.3129°
True anomaly
103.81121°
Mean anomaly
37.7248°
Eccentric anomaly
67.74983°
Mean motion
1.06051 °/min
Orbital period
339.46 mins
BSTAR
0.00030009
Loading maneuver chart data...
Computing Atmospheric mass density...
Loading historical data...
Loading historical data...
Loading historical data...
Loading historical data...
Loading historical data...
Loading historical data...
Loading historical data...

Documentation

Showing up to 5 results
|